Tracking 21473 objects as of 20-Sep-2020
HD Live streaming from Space Station
objects crossing your sky now

COSMOS 482 DESCENT CRAFT

Track COSMOS 482 DESCENT CRAFT now!
10-day predictions
COSMOS 482 DESCENT CRAFT is classified as:


NORAD ID: 6073
Int'l Code: 1972-023E
Perigee: 207.8 km
Apogee: 2,236.6 km
Inclination: 52.1 °
Period: 109.7 minutes
Semi major axis: 7593 km
RCS: 0.7153 m2 (medium)
Launch date: March 31, 1972
Source: Commonwealth of Independent States (former USSR) (CIS)
Launch site: TYURATAM MISSILE AND SPACE COMPLEX (TTMTR)
aabbcc
Your satellite tracking list
Your tracking list is empty




NASA's NSSDC Master Catalog

Two Line Element Set (TLE):
1  6073U 72023E   20264.57607845 +.00006734 +53307-5 +32505-4 0  9998
2  6073 052.0539 092.2577 1335909 287.9067 058.0847 13.12098019514683
Source of the keplerian elements: AFSPC